Location: *
(46.1333°S, 161.2167°W)
Time: 09:22:58
(UTC+00:00)

Cosmos 2298 Rocket - Pass Details

Date: 25 October 2020
Orbit: 776 x 783 km, 74.0° (Epoch: 04 December)

Event Time Altitude Azimuth Distance (km) Brightness Sun altitude
Exits shadow 10:31:54 16° 102° (ESE) 1,974 6.2 -31.5°
Drops below altitude 10° 10:34:02 10° 125° (SE) 2,369 6.9 -31.5°
Sets 10:37:13 0° 143° (SE) 3,308 8.0 -31.5°
